Regional Weather Roundup
Issued by NWS Charleston, SC

Home | Current Version | Previous Version | Text Only | Print | Product List | Glossary On
Versions: 1 2 3 4 5 6 7 8 9 10 11 12 13 14 15 16 17 18 19 20 21 22 23 24 25 26 27 28 29 30 31 32 33 34 35 36 37 38 39 40 41 42 43 44 45 46 47 48 49 50
000
ASUS42 KCHS 010825
RWRCHS

REGIONAL WEATHER ROUNDUP
NATIONAL WEATHER SERVICE CHARLESTON SC
400 AM EDT FRI AUG 01 2014

NOTE: "FAIR" INDICATES FEW OR NO CLOUDS BELOW 12,000 FEET WITH NO
SIGNIFICANT WEATHER AND/OR OBSTRUCTIONS TO VISIBILITY.

NOT ALL STATIONS ARE QUALITY CONTROLLED BY THE NATIONAL
WEATHER SERVICE. USE DATA WITH CAUTION...ESPECIALLY
DEWPOINT OBSERVATIONS.

SCZ027-030-031-034>040-042>050-010900-
...SOUTH CAROLINA...

CITY           SKY/WX    TMP DP  RH WIND       PRES   REMARKS
N CHARLESTON   MOCLDY    75  72  90 N5        29.99S
WATERFRONT PRK   N/A     79 N/A N/A N8          N/A
FORT JOHNSON   NOT AVBL
MOUNT PLEASANT FAIR      73  73 100 CALM      29.98F FOG
JOHNS ISLAND   PTSUNNY   75  70  83 CALM      29.98F HAZE
PINOPOLIS        N/A     75  72  88 E3        29.94S
MONCKS CORNER  NOT AVBL
SUMMERVILLE    FAIR      70  70 100 CALM      30.00F
BEAUFORT MCAS  FOG       74  73  97 NE6       29.98S VSB 3/4
BEAUFORT ARPT  CLOUDY    73  73 100 NE5       29.97F FOG
HILTON HEAD IS PTCLDY    79  79 100 N7        29.98F
GEORGETOWN     NOT AVBL
WALTERBORO     FOG       72 N/A N/A CALM      30.00F VSB 1/4
ORANGEBURG     CLOUDY    72  69  90 NE3       30.01F
BARNWELL       CLOUDY    72  70  94 NE3       30.01F
AIKEN          CLOUDY    70  70 100 NE7       30.05F
MANNING        PTSUNNY   73 N/A N/A CALM      30.01F
KINGSTREE      NOT AVBL
COLUMBIA       CLOUDY    73  68  84 N6        30.02F
SUMTER         CLOUDY    73  73 100 NE1       30.01F
FLORENCE       MOCLDY    73  71  93 E5        30.02S
MYRTLE BEACH   PTCLDY    79  73  83 E9G16     30.00F
N MYRTLE BEACH MOCLDY    81  75  82 MISG      30.00F

$$

GAZ063-065-086>088-099>101-113>116-118-119-134-136>141-150-010900-
...GEORGIA...

CITY           SKY/WX    TMP DP  RH WIND       PRES   REMARKS
SAVANNAH ARPT  CLOUDY    75  73  94 NE5       29.98S FOG
HUNTER AAF     PTCLDY    76  75  97 N5        29.95F
FORT STEWART   PTCLDY    73  72  94 N2        29.96S
STATESBORO     NOT AVBL
SYLVANIA       CLOUDY    74  74 100 NE3       30.00S FOG
CLAXTON        CLOUDY   N/A N/A N/A CALM      29.98S FOG
THOMSON        CLOUDY    71  71 100 NE5       30.07F
AUGUSTA-BUSH   CLOUDY    71  68  90 N5        30.01F
AUGUSTA-DANIEL CLOUDY    72  68  87 NE7       30.02F
SWAINSBORO     CLOUDY    77  77 100 E5        30.00S
VIDALIA          N/A     73  73 100 N3        29.99S FOG
ALMA           CLOUDY    72  70  93 CALM      29.97S
WAYCROSS       MOCLDY    75  74  95 N3        29.96S
JESUP          FAIR      75  73  94 CALM      29.96S
BRUNSWICK      PTCLDY    77  72  83 CALM      29.95S
SAINT SIMONS   MOCLDY    83  75  77 SE9       29.95F HX  90

$$

SCZ027-028-034-036>038-045-046-048>050-GAZ119-141-010900-
...LAKE AND SUPPLEMENTAL COASTAL OBSERVATIONS...

STATION/POSITION TIME  TEMP    WIND        PRES    WAVE   SWELL
                       AIR SEA DIR/SP/G            HT/PER HT/PER/DIR
                 (UTC) (F)     (DEG/KT/KT) (MB)    (FT/S) (FT/S/D)
UPR LAKE MARION  NOT AVBL
WINYAH BAY       0800   80     110/ 10     1016.0S
LAKE MURRAY      0700   70     340/  2/  6 1016.6F
ACE BASIN NERRS  0800   73      10/  1     1015.0S
FORT PULASKI     0800   81     140/  1/  2 1014.9F
SAPELO ISLAND    0800   80     140/  4     1015.0S

$$

ANZ835-935-AMZ111-154-330-350-352-354-374-450-454-472-010900-
...C-MAN AND BUOY OBSERVATIONS...

STATION/POSITION TIME  TEMP    WIND        PRES    WAVE   SWELL
                       AIR SEA DIR/SP/G            HT/PER HT/PER/DIR
                 (UTC) (F)     (DEG/KT/KT) (MB)    (FT/S) (FT/S/D)
FOLLY BEACH CMAN 0800   82     170/  8/  8 1015.5F
BUOY 41004       0800   81 83  170/ 14/ 16 1014.3F   4/ 6   2/ 7
BUOY 41008       0800   83 85  150/ 10/ 14 1014.2F   2/ 4   2/ 50/ 5
5E ST. MARYS GA  0800      85                N/A     3/ 4
FRYING PAN BUOY  NOT AVBL
BUOY 41025       0800          VRB 12/ 14  1019.0F   4/ 6   3/120/ 6
CAPE LOOKOUT NC  0800   80     100/ 16/ 17 1018.2F
BUOY 41002       0726   81 81  160/ 10/ 12 1018.5F   4/ 7   3/130/ 7
BUOY 41010       0800   83 84  150/ 14/ 16 1015.4F   3/ 4   2/ 70/ 7
BUOY 41012       NOT AVBL
ST AUGUSTINE FL  0800   80     190/  5/  6 1014.3F
CAPERS NEARSHORE 0700   82     170/  8/  8   N/A
FRIPP NEARSHORE  NOT AVBL


$$



USA.gov is the U.S. government's official web portal to all federal, state and local government web resources and services.